STARLINK-2366 (47906 NORAD) Tracking and Keplerian Element Data

This shows tracking and keplerian element data for the satellite.

Feedback or suggestion? Click here.




ElementValue
Catalog47906
NameSTARLINK-2366
Epoch Orbit198
Epoch Day173.91668981
Epoch Year2021
RAAN78.5709
Inclination53.0498
Eccentricity0.0002171
Argument of Perigee24.5562
Mean Anonmoly192.4233
Mean Motion15.73213077
Decay Rate-2.602E-05
L11 47906U 21021AY 21173.91668981 -.00002602 00000-0 -14097-4 0 9991
L22 47906 53.0498 78.5709 0002171 24.5562 192.4233 15.73213077 1986

Live tracking and technical data element details for STARLINK-2366 (NORAD 47906). STARLINK-2366 can be tracked NOW for your location showing map with azimuth and elevation plus other details from your city location.

Track the satellite on the map from your city or location and see movement details for azimuth, elevation, latitude, longitude, range, height, and movement on the map or in text.







IsCatalogInMostPopularTable: catalog: 47906, numindb: 44
Update: records affected: 1



GetName: 47906 STARLINK-2366

Hit Count: updated at: Thu, 24 Jun 2021 04:16:23 GMT